Flag for U.S.A. Weather past 2 weeks in Salt Lake City, Utah, U.S.A.

44 °F

Light rain. Cloudy.

Feels Like: 39 °F
Forecast: 34 / 49 °F
Wind: 10 mph from Southeast

Location: Salt Lake City International Airport

Current Time: Nov 25, 2015 at 4:51:37 PM

Latest Report: Nov 25, 2015 at 3:53 PM

Visibility: 10 mi

Pressure: 29.56 "Hg (25.18 "Hg at 1312m altitude)

Humidity: 68%

Dew point: 34 °F

Location of Salt Lake CityLocation

Historic Weather in Salt Lake City — Graph


Salt Lake City temperature yesterday

Maximum temperature yesterday: 54 °F (at 2:53 PM)
Minimum temperature yesterday: 25 °F (at 5:53 AM)
Average temperature yesterday: 40 °F

Past Weeks' High & Low Weather Summary

High59 °F (Nov 15, 1:53 PM)86% (Nov 10, 2:53 PM)30.53 "Hg (Nov 10, 2:53 PM)
Low23 °F (Nov 22, 6:53 AM)18% (Nov 15, 2:53 PM)29.46 "Hg (Nov 25, 11:53 AM)
Average39 °F58%30.09 "Hg
* Reported Nov 10 2:53 PM — Nov 25 2:53 PM, Salt Lake City, Weather by CustomWeather, © 2015

Note: Actual official high and low records may vary slightly from our data, if they occured in-between our weather recording intervals... More about our weather records


Salt Lake City weather history for previous 24 hours

Time TempWeatherWind HumidityBarometerVisibility
2:53 PM
Wed, Nov 25
46 °FLight rain. Broken clouds.16 mph58%29.54 "Hg10 mi
1:53 PM51 °FPartly sunny.16 mph36%29.47 "Hg10 mi
1:00 PM52 °FBroken clouds.12 mph34%29.51 "Hg10 mi
11:53 AM55 °FPartly sunny.13 mph24%29.46 "Hg10 mi
10:53 AM53 °FPartly sunny.13 mph27%29.49 "Hg10 mi
9:53 AM48 °FPartly sunny.5 mph36%29.51 "Hg10 mi
8:53 AM47 °FBroken clouds.10 mph37%29.52 "Hg10 mi
7:53 AM47 °FPartly sunny.13 mph34%29.55 "Hg10 mi
6:53 AM41 °FOvercast.6 mph47%29.57 "Hg10 mi
5:53 AM43 °FPassing clouds.9 mph42%29.55 "Hg10 mi
4:53 AM43 °FPassing clouds.10 mph42%29.55 "Hg10 mi
3:53 AM43 °FPassing clouds.13 mph43%29.52 "Hg10 mi
2:53 AM40 °FPassing clouds.12 mph49%29.54 "Hg10 mi
1:53 AM41 °FPassing clouds.9 mph45%29.53 "Hg10 mi
12:53 AM43 °FPassing clouds.9 mph42%29.54 "Hg10 mi
11:53 PM
Tue, Nov 24
46 °FPassing clouds.13 mph37%29.55 "Hg10 mi
10:53 PM47 °FPassing clouds.10 mph36%29.56 "Hg10 mi
9:53 PM49 °FPassing clouds.14 mph33%29.57 "Hg10 mi
8:53 PM48 °FClear.16 mph37%29.59 "Hg10 mi
7:53 PM37 °FPassing clouds.No wind70%29.66 "Hg8 mi
6:53 PM38 °FOvercast.No wind68%29.67 "Hg10 mi
5:53 PM40 °FOvercast.No wind68%29.68 "Hg10 mi
4:53 PM40 °FPartly sunny.7 mph68%29.69 "Hg9 mi
Weather by CustomWeather, © 2015

See weather overviewHow to use our weather pages